Meteo Giornale » Osservazioni meteo Italia » Palermo-Punta Raisi

ore: 19:50 - Osservazioni Meteo Palermo-Punta Raisi
Lat. 38° 11' N Lon. 13° 6' E Alt. 21 metri s.l.m.

sereno Europe/Rome

28 °C

Sereno

Temp. 24 Ore

23 °C

30 °C

Est/Nord-Est

18.5 Km/h

Dew point 21 °C

Umidità 65 %

Visibilità  10 Km

Il sole sorge alle ore 06:24

Il sole tramonta alle ore 19:58

Data e Ora Cielo e Fenomeni T °C DP °C Um. % Pres. hPa Vis. km Vento km/h
Oggi h: 19:50 sereno Sereno 28 21 65 1015 10 E/NE 18.5
Oggi h: 19:20 sereno Sereno 28 22 69 1015 10 E/NE 20.3
Oggi h: 18:50 sereno Sereno 29 22 66 1015 10 NE 20.3
Oggi h: 18:20 sereno Sereno 29 22 66 1015 10 NE 20.3
Oggi h: 17:50 sereno Sereno 29 21 62 1015 10 N/NE 22.2
Oggi h: 17:20 sereno Sereno 29 20 58 1015 10 NE 24
Oggi h: 16:50 sereno Sereno 29 21 62 1015 10 NE 25.9
Oggi h: 16:20 sereno Sereno 30 20 55 1015 10 NE 25.9
Oggi h: 15:50 sereno Sereno 29 22 66 1016 10 NE 24
Oggi h: 15:20 sereno Sereno 29 22 66 1016 10 NE 25.9
Oggi h: 14:50 sereno Sereno 29 22 66 1016 10 NE 25.9
Oggi h: 14:20 sereno Sereno 29 22 66 1016 10 NE 24
Oggi h: 13:50 sereno Sereno 29 20 58 1016 10 NE 24
Oggi h: 13:20 sereno Sereno 29 22 66 1016 10 N/NE 20.3
Oggi h: 12:50 sereno Sereno 29 22 66 1017 10 N/NE 16.7
Oggi h: 12:20 sereno Sereno 28 21 65 1017 10 N/NE 16.7
Oggi h: 11:50 sereno Sereno 28 21 65 1017 10 N/NE 14.8
Oggi h: 11:20 sereno Sereno 28 21 65 1017 10 N/NE 16.7
Oggi h: 10:50 sereno Sereno 28 21 65 1017 10 N/NE 14.8
Oggi h: 10:20 sereno Sereno 27 21 69 1017 10 N/NE 13
Oggi h: 09:50 sereno Sereno 27 21 69 1017 10 N/NE 13
Oggi h: 09:20 sereno Sereno 27 21 69 1016 10 N/NE 13
Oggi h: 08:50 sereno Sereno 27 21 69 1016 10 N/NE 7.4
Oggi h: 08:20 sereno Sereno 27 20 65 1016 10 N 1.8
Oggi h: 07:50 sereno Sereno 25 19 69 1016 10 N 3.7
Oggi h: 07:20 sereno Sereno 24 18 69 1016 10 N 5.5
Oggi h: 06:50 sereno Sereno 23 18 73 1016 10 N 5.5
Oggi h: 06:20 sereno Sereno 23 18 73 1016 10 N 1.8
Oggi h: 05:50 sereno Sereno 24 18 69 1015 10 SE 7.4
Oggi h: 05:20 sereno Sereno 23 17 68 1015 10 N 5.5
Oggi h: 04:50 sereno Sereno 24 17 64 1015 10 SE 9.3
Oggi h: 04:20 sereno Sereno 24 17 64 1015 10 SE 7.4
Oggi h: 03:50 sereno Sereno 24 18 69 1016 10 E 7.4
Oggi h: 03:20 sereno Sereno 24 18 69 1016 10 N 5.5
Oggi h: 02:50 sereno Sereno 25 19 69 1016 10 N 5.5
Oggi h: 02:20 sereno Sereno 25 19 69 1016 10 N 5.5
Oggi h: 01:50 sereno Sereno 26 20 69 1016 10 E/NE 7.4
Oggi h: 01:20 sereno Sereno 26 20 69 1016 10 NE 11.1
Oggi h: 00:50 sereno Sereno 26 20 69 1017 10 NE 13
Oggi h: 00:20 sereno Sereno 26 20 69 1017 10 NE 11.1
Ieri h: 23:50 sereno Sereno 26 20 69 1016 10 NE 11.1
Ieri h: 23:20 sereno Sereno 26 20 69 1016 10 NE 9.3
Ieri h: 22:50 sereno Sereno 26 20 69 1016 10 N 3.7
Ieri h: 22:20 sereno Sereno 27 20 65 1016 10 N 3.7
Ieri h: 21:50 sereno Sereno 27 21 69 1016 10 N 5.5
Ieri h: 21:20 sereno Sereno 27 21 69 1016 10 N 7.4
Ieri h: 20:50 sereno Sereno 27 21 69 1016 10 N 5.5